Regional Weather Roundup
Issued by NWS Sioux Falls, SD

Home | Current Version | Previous Version | Graphics & Text | Print | Product List | Glossary On
Versions: 1 2 3 4 5 6 7 8 9 10 11 12 13 14 15 16 17 18 19 20 21 22 23 24 25 26 27 28 29 30 31 32 33 34 35 36 37 38 39 40 41 42 43 44 45 46 47 48 49 50
000
ASUS43 KFSD 301202
RWRFSD

WEATHER ROUNDUP FOR SE SOUTH DAKOTA/SW MINNESOTA/NW IOWA
NATIONAL WEATHER SERVICE SIOUX FALLS SD
700 AM CDT FRI SEP 30 2016

NOTE: "FAIR" INDICATES FEW OR NO CLOUDS BELOW 12,000 FEET WITH NO
SIGNIFICANT WEATHER AND OR OBSTRUCTIONS TO VISIBILITY.


SDZ038>040-050-052>070-301300-
SOUTHEAST SOUTH DAKOTA

CITY           SKY/WX    TMP DP  RH WIND       PRES   REMARKS
CHAMBERLAIN    NOT AVBL
HURON          CLEAR     45  44  97 SE7       30.29F
6HR MIN TEMP:  45; 6HR MAX TEMP:  49;

MADISON        FAIR      41  41 100 E3        30.33R FOG
MITCHELL       CLEAR     44  42  93 SE7       30.31S
6HR MIN TEMP:  44; 6HR MAX TEMP:  50;

SIOUX FALLS    CLEAR     42  40  92 CALM      30.33S
6HR MIN TEMP:  41; 6HR MAX TEMP:  49;

WINNER         FAIR      51  45  79 S12       30.24S
YANKTON        CLEAR     43  41  93 E6        30.30S
$$

MNZ071-072-080-081-089-090-097-098-301300-
SOUTHWEST MINNESOTA

CITY           SKY/WX    TMP DP  RH WIND       PRES   REMARKS
FAIRMONT       FOG       43  43 100 CALM      30.35S VSB 1/4
JACKSON        CLEAR     43  41  93 NE3       30.35S FOG
LUVERNE        CLEAR     41  39  93 CALM      30.34R
MARSHALL       CLEAR     41  40  96 S3        30.35S FOG
6HR MIN TEMP:  40; 6HR MAX TEMP:  46;

MONTEVIDEO     CLEAR     45  45 100 SE3       30.36F FOG
PIPESTONE      CLEAR     48  45  87 SE7       30.33S
REDWOOD FALLS  CLEAR     46  44  93 NE3       30.36S FOG
TRACY          CLEAR     44  44  99 CALM      30.35S FOG
WINDOM         CLEAR     45  43  93 CALM      30.35S FOG
WORTHINGTON    CLEAR     41  40  96 NW3       30.35S
$$

IAZ001>003-012>014-020>022-031-032-NEZ013-014-SDZ071-301300-
NORTHWEST IOWA

CITY           SKY/WX    TMP DP  RH WIND       PRES   REMARKS
CHEROKEE       CLEAR     42  42 100 CALM      30.33R
DENISON        CLEAR     45  45 100 CALM      30.30R
ESTHERVILLE    CLEAR     41  41 100 N6        30.33F
LE MARS        CLEAR     43  41  93 N3        30.33S
SHELDON        CLEAR     39  39 100 CALM      30.32S
SIOUX CITY     CLEAR     42  40  92 CALM      30.32S
6HR MIN TEMP:  42; 6HR MAX TEMP:  49;

SPENCER        CLEAR     40  40 100 CALM      30.33S
6HR MIN TEMP:  39; 6HR MAX TEMP:  46;

STORM LAKE     CLEAR     50  48  93 NE7       30.33R
$$

ABBREVIATIONS USED IN REMARKS
   TC - TEMPERATURE IN CELSIUS
  WCI - WIND CHILL INDEX
   HX - HEAT INDEX
  VSB - VISIBILITY




USA.gov is the U.S. government's official web portal to all federal, state and local government web resources and services.